User: anonymous   Login
Location: Unspecified
(0.0000°N, 0.0000°E)
Time: 15:53:58
(UTC+00:00)
Language:

Vela 4A - Orbit

View from above orbital plane
View from above orbital plane
View from above satellite
View from above satellite

Ground track
Ground track

The orbit data is extracted from the following two-line orbital elements,

1 02765U 67040A   14325.16362790 -.00000429  00000-0  00000+0 0   150
2 02765 006.0441 331.3485 4992900 187.8657 000.5976 00.21456770 37323
Epoch (UTC): 21 November 2014 03:55:37
Eccentricity: 0.4992900
inclination: 6.0441°
perigee height: 52634 km
apogee height: 170323 km
right ascension of ascending node: 331.3485°
argument of perigee: 187.8657°
revolutions per day: 0.21456770
mean anomaly at epoch: 0.5976°
orbit number at epoch: 3732

The dashed part of the orbit path shows where the satellite is in the earth's shadow,  

DLR